Erzurum, Turkey

5:42 AM +03 on October 20, 2017 (GMT +0300)
Erzurum

Weather History for LTCE - February, 2013

Change the Weather History Date:

Thursday, February 28, 2013

  Actual Average Record
Temperature  
Mean Temperature 32 °F -  
Max Temperature 37 °F 36 °F 59 °F (1997)
Min Temperature 28 °F 21 °F -16 °F (2003)
Degree Days  
Heating Degree Days 32    
Moisture  
Dew Point 32 °F    
Average Humidity 95    
Maximum Humidity 100    
Minimum Humidity 68    
Precipitation  
Precipitation 0.35 in 0.04 in - ()
Sea Level Pressure  
Sea Level Pressure 29.82 in    
Wind  
Wind Speed 7 mph ()    
Max Wind Speed 15 mph    
Max Gust Speed 25 mph    
Visibility 3.8 miles    
Events Fog , Snow    
Averages and records for this station are not official NWS values.
T = Trace of Precipitation, MM = Missing Value Source: Averaged Metar Reports

Daily Weather History Graph

Daily Weather History Graph

Search for Another Location

Airport or City:

Trip Planner

Search our weather history database for the weather conditions in past years. The results will help you decide how hot, cold, wet, or windy it might be!

Date:

Astronomy

Feb. 28, 2013 Rise Set
Actual Time 5:50 AM EET 5:06 PM EET
Civil Twilight 5:23 AM EET 5:33 PM EET
Nautical Twilight 4:51 AM EET 6:04 PM EET
Astronomical Twilight 4:20 AM EET 6:35 PM EET
Moon 8:08 PM EET (2/28) 6:47 AM EET (2/28)
Length of Visible Light 12h 10m
Length of Day
11h 15m
Waning Gibbous, 93% of the Moon is Illuminated
Feb 28
Waning Gibbous
Mar 4
Last Quarter
Mar 11
New
Mar 19
First Quarter
Mar 27
Full

Hourly Weather History & Observations

Time (EET) Temp. Windchill Dew Point Humidity Pressure Visibility Wind Dir Wind Speed Gust Speed Precip Events Conditions
12:20 AM 32.0 °F 25.6 °F 30.2 °F 93% 29.89 in 3.7 mi ENE 6.9 mph - N/A   Mostly Cloudy
12:50 AM 35.6 °F 28.0 °F 35.6 °F 100% 29.86 in 6.2 mi SSW 10.4 mph - N/A   Mostly Cloudy
1:20 AM 37.4 °F 29.8 °F 32.0 °F 81% 29.86 in 6.2 mi SSW 11.5 mph - N/A   Mostly Cloudy
1:50 AM 37.4 °F 30.8 °F 32.0 °F 81% 29.83 in 6.2 mi SW 9.2 mph - N/A   Mostly Cloudy
2:00 AM 38 °F - 31 °F 68%  in 6 mi SW 9.2 mph - -   Partly Cloudy
2:20 AM 37.4 °F 28.5 °F 32.0 °F 81% 29.83 in 6.2 mi WSW 15.0 mph - N/A   Mostly Cloudy
2:50 AM 37.4 °F 29.8 °F 32.0 °F 81% 29.83 in 6.2 mi SSW 11.5 mph - N/A   Mostly Cloudy
3:20 AM 37.4 °F 30.3 °F 30.2 °F 75% 29.83 in 6.2 mi SSW 10.4 mph - N/A   Mostly Cloudy
3:50 AM 35.6 °F 28.0 °F 32.0 °F 87% 29.83 in 6.2 mi West 10.4 mph - N/A   Mostly Cloudy
4:20 AM 35.6 °F 27.1 °F 32.0 °F 87% 29.83 in 6.2 mi NW 12.7 mph 25.3 mph N/A   Mostly Cloudy
4:50 AM 35.6 °F 28.6 °F 32.0 °F 87% 29.83 in 6.2 mi WNW 9.2 mph - N/A   Mostly Cloudy
5:20 AM 32.0 °F 23.0 °F 32.0 °F 100% 29.86 in 6.2 mi West 11.5 mph - N/A   Mostly Cloudy
5:50 AM 32.0 °F 24.8 °F 32.0 °F 100% 29.83 in 6.2 mi West 8.1 mph - N/A   Mostly Cloudy
6:20 AM 32.0 °F 25.6 °F 30.2 °F 93% 29.83 in 6.2 mi WNW 6.9 mph - N/A   Mostly Cloudy
6:50 AM 32.0 °F 27.5 °F 30.2 °F 93% 29.83 in 6.2 mi WNW 4.6 mph - N/A   Mostly Cloudy
7:20 AM 32.0 °F 26.4 °F 32.0 °F 100% 29.83 in 0.4 mi SE 5.8 mph - N/A Fog , Snow Light Snow
7:50 AM 33.8 °F 29.6 °F 33.8 °F 100% 29.83 in 3.7 mi East 4.6 mph - N/A Snow Light Snow
8:00 AM 33 °F - 33 °F 98%  in 4 mi East 4.6 mph - - Snow Light Snow
8:20 AM 32.0 °F 24.2 °F 32.0 °F 100% 29.83 in 2.2 mi WNW 9.2 mph - N/A Snow Light Snow
8:50 AM 32.0 °F 23.6 °F 32.0 °F 100% 29.86 in 0.2 mi West 10.4 mph - N/A Snow Heavy Snow
9:20 AM 32.0 °F 23.0 °F 32.0 °F 100% 29.86 in - West 11.5 mph - N/A Fog , Snow Light Snow
9:50 AM 32.0 °F 24.8 °F 32.0 °F 100% 29.86 in - WSW 8.1 mph - N/A Fog , Snow Light Snow
10:20 AM 32.0 °F 27.5 °F 32.0 °F 100% 29.86 in 0.2 mi WSW 4.6 mph - N/A Fog , Snow Heavy Snow
10:50 AM 33.8 °F 30.8 °F 33.8 °F 100% 29.86 in 0.4 mi WSW 3.5 mph - N/A Fog , Snow Light Snow
11:20 AM 32.0 °F 24.2 °F 32.0 °F 100% 29.86 in 0.4 mi WSW 9.2 mph - N/A Fog , Snow Light Snow
11:50 AM 33.8 °F 25.3 °F 33.8 °F 100% 29.86 in - SW 11.5 mph 23.0 mph N/A Snow Light Snow
12:20 PM 35.6 °F 28.0 °F 33.8 °F 93% 29.83 in 2.5 mi SW 10.4 mph - N/A Snow Light Snow
12:50 PM 35.6 °F 31.7 °F 35.6 °F 100% 29.83 in - WNW 4.6 mph - N/A Snow Light Snow
1:20 PM 33.8 °F 30.8 °F 33.8 °F 100% 29.83 in 2.8 mi North 3.5 mph - N/A Snow Light Snow
1:50 PM 33.8 °F 29.6 °F 33.8 °F 100% 29.83 in - West 4.6 mph - N/A Snow Light Snow
2:00 PM 33 °F - 33 °F 100%  in 3 mi West 4.6 mph - - Snow Light Snow
2:20 PM 33.8 °F 24.8 °F 32.0 °F 93% 29.83 in 2.8 mi WSW 12.7 mph - N/A Snow Light Snow
2:50 PM 33.8 °F 25.8 °F 30.2 °F 87% 29.83 in - WSW 10.4 mph - N/A Snow Light Snow
3:20 PM 33.8 °F 27.7 °F 30.2 °F 87% 29.83 in - WSW 6.9 mph - N/A Snow Light Snow
3:50 PM 33.8 °F 27.0 °F 30.2 °F 87% 29.83 in - WSW 8.1 mph - N/A   Overcast
4:20 PM 32.0 °F - 32.0 °F 100% 29.83 in 1.2 mi Calm Calm - N/A Snow Light Snow
4:50 PM 30.2 °F - 30.2 °F 100% 29.83 in - Calm Calm - N/A Snow Light Snow
5:20 PM 30.2 °F - 30.2 °F 100% 29.83 in - Calm Calm - N/A Snow Light Snow
5:50 PM 28.4 °F - 28.4 °F 100% 29.83 in - Calm Calm - N/A   Mostly Cloudy
6:20 PM 28.4 °F - 28.4 °F 100% 29.83 in - Calm Calm - N/A   Mostly Cloudy
6:50 PM 30.2 °F 26.7 °F 30.2 °F 100% 29.83 in 2.8 mi East 3.5 mph - N/A Snow Light Snow
7:20 PM 30.2 °F - 30.2 °F 100% 29.80 in 2.8 mi NE 2.3 mph - N/A Snow Light Snow
7:50 PM 30.2 °F - 30.2 °F 100% 29.80 in - Calm Calm - N/A Snow Light Snow
8:00 PM 31 °F - 31 °F 97%  in 3 mi Calm Calm - - Snow Light Snow
8:20 PM 30.2 °F - 30.2 °F 100% 29.80 in - Calm Calm - N/A Snow Light Snow
8:50 PM 30.2 °F 26.7 °F 30.2 °F 100% 29.77 in 2.2 mi NE 3.5 mph - N/A Snow Light Snow
9:20 PM 30.2 °F 26.7 °F 30.2 °F 100% 29.77 in 2.2 mi East 3.5 mph - N/A Snow Light Snow
9:50 PM 30.2 °F 26.7 °F 30.2 °F 100% 29.77 in - ENE 3.5 mph - N/A Snow Light Snow
10:20 PM 32.0 °F 26.4 °F 30.2 °F 93% 29.77 in - ENE 5.8 mph - N/A Snow Light Snow
10:50 PM 32.0 °F 24.8 °F 32.0 °F 100% 29.74 in - ENE 8.1 mph - N/A Snow Light Snow
11:20 PM 32.0 °F 22.1 °F 32.0 °F 100% 29.74 in 2.8 mi East 13.8 mph - N/A   Mostly Cloudy
11:50 PM 32.0 °F 28.7 °F 32.0 °F 100% 29.74 in - ESE 3.5 mph - N/A Snow Light Snow